Time,TemperatureF,DewpointF,PressureIn,WindDirection,WindDirectionDegrees,WindSpeedMPH,WindSpeedGustMPH,Humidity,HourlyPrecipIn,Conditions,Clouds,dailyrainin,SoftwareType,DateUTC
2013-02-19 00:01:00,17.8,12.1,29.57,WNW,291,8.0,17.0,78,0.00,RA,,0.00,WeatherDisplay:10.37,2013-02-19 06:01:00,
2013-02-19 00:06:00,17.8,12.1,29.57,WNW,294,13.0,20.0,78,0.00,RA,,0.00,WeatherDisplay:10.37,2013-02-19 06:06:00,
2013-02-19 00:11:00,17.8,12.1,29.57,WNW,285,5.0,13.0,78,0.00,CLR,,0.00,WeatherDisplay:10.37,2013-02-19 06:11:00,
2013-02-19 00:16:00,17.8,12.1,29.57,WNW,292,6.0,8.1,78,0.00,CLR,,0.00,WeatherDisplay:10.37,2013-02-19 06:16:00,
2013-02-19 00:21:00,17.8,12.4,29.57,WNW,292,4.7,5.8,79,0.00,CLR,,0.00,WeatherDisplay:10.37,2013-02-19 06:21:00,
2013-02-19 00:26:00,17.8,12.4,29.57,West,270,6.7,8.1,79,0.00,CLR,,0.00,WeatherDisplay:10.37,2013-02-19 06:26:00,
2013-02-19 00:31:00,17.8,12.1,29.57,West,270,5.6,5.8,78,0.00,CLR,,0.00,WeatherDisplay:10.37,2013-02-19 06:31:00,
2013-02-19 00:36:00,17.6,11.6,29.57,WNW,292,6.4,6.9,77,0.00,CLR,,0.00,WeatherDisplay:10.37,2013-02-19 06:36:00,
2013-02-19 00:41:00,17.6,11.3,29.57,WNW,292,7.1,10.4,76,0.00,CLR,,0.00,WeatherDisplay:10.37,2013-02-19 06:41:00,
2013-02-19 00:46:00,17.6,11.3,29.57,NW,315,4.0,5.8,76,0.00,CLR,,0.00,WeatherDisplay:10.37,2013-02-19 06:46:00,
2013-02-19 00:51:00,17.4,11.1,29.57,WNW,292,6.2,16.3,76,0.00,CLR,,0.00,WeatherDisplay:10.37,2013-02-19 06:51:00,
2013-02-19 00:57:00,17.2,10.4,29.57,WNW,292,4.7,9.2,74,0.00,CLR,,0.00,WeatherDisplay:10.37,2013-02-19 06:57:00,
2013-02-19 01:02:00,17.1,10.2,29.57,WNW,292,6.2,9.2,74,0.00,CLR,,0.00,WeatherDisplay:10.37,2013-02-19 07:02:00,
2013-02-19 01:07:00,16.9,10.0,29.57,WNW,292,6.7,9.2,74,0.00,CLR,,0.00,WeatherDisplay:10.37,2013-02-19 07:07:00,
2013-02-19 01:12:00,16.9,10.3,29.59,NW,315,4.0,8.1,75,0.00,CLR,,0.00,WeatherDisplay:10.37,2013-02-19 07:12:00,
2013-02-19 01:17:00,16.9,10.3,29.59,WSW,248,6.4,10.4,75,0.00,CLR,,0.00,WeatherDisplay:10.37,2013-02-19 07:17:00,
2013-02-19 01:22:00,16.7,10.1,29.59,WNW,292,4.7,9.2,75,0.00,CLR,,0.00,WeatherDisplay:10.37,2013-02-19 07:22:00,
2013-02-19 01:27:00,16.7,9.8,29.59,WNW,292,4.7,9.2,74,0.00,CLR,,0.00,WeatherDisplay:10.37,2013-02-19 07:27:00,
2013-02-19 01:32:00,16.5,9.7,29.59,NW,315,5.6,6.9,74,0.00,CLR,,0.00,WeatherDisplay:10.37,2013-02-19 07:32:00,
2013-02-19 01:37:00,16.3,9.8,29.59,WNW,292,5.6,12.8,75,0.00,CLR,,0.00,WeatherDisplay:10.37,2013-02-19 07:37:00,
2013-02-19 01:42:00,16.0,9.5,29.59,West,270,4.3,12.7,75,0.00,CLR,,0.00,WeatherDisplay:10.37,2013-02-19 07:42:00,
2013-02-19 01:47:00,15.8,9.3,29.59,NW,315,7.6,9.2,75,0.00,CLR,,0.00,WeatherDisplay:10.37,2013-02-19 07:47:00,
2013-02-19 01:52:00,15.4,8.9,29.59,NW,315,5.6,8.1,75,0.00,CLR,,0.00,WeatherDisplay:10.37,2013-02-19 07:52:00,
2013-02-19 01:57:00,15.1,8.0,29.59,WNW,292,6.7,11.5,73,0.00,CLR,,0.00,WeatherDisplay:10.37,2013-02-19 07:57:00,
2013-02-19 02:02:00,14.9,7.8,29.59,WNW,292,9.0,10.4,73,0.00,CLR,,0.00,WeatherDisplay:10.37,2013-02-19 08:02:00,
2013-02-19 02:07:00,14.5,7.5,29.59,SW,225,7.8,13.8,73,0.00,CLR,,0.00,WeatherDisplay:10.37,2013-02-19 08:07:00,
2013-02-19 02:12:00,14.4,6.7,29.59,WNW,292,5.6,8.1,71,0.00,CLR,,0.00,WeatherDisplay:10.37,2013-02-19 08:12:00,
2013-02-19 02:17:00,14.2,6.2,29.59,WNW,292,7.8,7.8,70,0.00,CLR,,0.00,WeatherDisplay:10.37,2013-02-19 08:17:00,
2013-02-19 02:22:00,14.0,5.7,29.59,NW,315,9.7,13.8,69,0.00,CLR,,0.00,WeatherDisplay:10.37,2013-02-19 08:22:00,
2013-02-19 02:27:00,13.8,5.5,29.59,WSW,248,7.6,10.4,69,0.00,CLR,,0.00,WeatherDisplay:10.37,2013-02-19 08:27:00,
2013-02-19 02:32:00,13.8,5.5,29.59,West,270,7.8,13.8,69,0.00,CLR,,0.00,WeatherDisplay:10.37,2013-02-19 08:32:00,
2013-02-19 02:37:00,13.6,5.3,29.59,WSW,248,7.4,15.0,69,0.00,CLR,,0.00,WeatherDisplay:10.37,2013-02-19 08:37:00,
2013-02-19 02:42:00,13.5,5.2,29.57,WNW,292,10.2,18.4,69,0.00,CLR,,0.00,WeatherDisplay:10.37,2013-02-19 08:42:00,
2013-02-19 02:47:00,13.5,5.2,29.57,WNW,292,7.4,9.2,69,0.00,CLR,,0.00,WeatherDisplay:10.37,2013-02-19 08:47:00,
2013-02-19 02:52:00,13.3,5.0,29.57,NW,315,5.4,9.2,69,0.00,CLR,,0.00,WeatherDisplay:10.37,2013-02-19 08:52:00,
2013-02-19 02:57:00,13.1,4.8,29.59,WNW,292,9.8,10.4,69,0.00,CLR,,0.00,WeatherDisplay:10.37,2013-02-19 08:57:00,
2013-02-19 03:02:00,12.9,4.7,29.59,WNW,292,9.2,13.8,69,0.00,CLR,,0.00,WeatherDisplay:10.37,2013-02-19 09:02:00,
2013-02-19 03:07:00,12.9,4.7,29.59,WNW,292,12.1,17.3,69,0.00,CLR,,0.00,WeatherDisplay:10.37,2013-02-19 09:07:00,
2013-02-19 03:12:00,12.7,4.5,29.59,West,270,9.8,11.5,69,0.00,CLR,,0.00,WeatherDisplay:10.37,2013-02-19 09:12:00,
2013-02-19 03:17:00,12.7,4.5,29.59,NW,315,8.7,12.7,69,0.00,CLR,,0.00,WeatherDisplay:10.37,2013-02-19 09:17:00,
2013-02-19 03:22:00,12.6,4.3,29.59,NW,315,6.4,11.4,69,0.00,CLR,,0.00,WeatherDisplay:10.37,2013-02-19 09:22:00,
2013-02-19 03:27:00,12.6,4.3,29.62,NW,315,10.2,12.7,69,0.00,CLR,,0.00,WeatherDisplay:10.37,2013-02-19 09:27:00,
2013-02-19 03:32:00,12.4,4.1,29.62,West,270,10.9,17.3,69,0.00,CLR,,0.00,WeatherDisplay:10.37,2013-02-19 09:32:00,
2013-02-19 03:37:00,12.4,4.1,29.62,WNW,292,5.6,15.0,69,0.00,CLR,,0.00,WeatherDisplay:10.37,2013-02-19 09:37:00,
2013-02-19 03:42:00,12.4,4.1,29.65,WNW,292,9.7,12.7,69,0.00,CLR,,0.00,WeatherDisplay:10.37,2013-02-19 09:42:00,
2013-02-19 03:47:00,12.2,4.0,29.65,NNW,338,6.2,9.2,69,0.00,CLR,,0.00,WeatherDisplay:10.37,2013-02-19 09:47:00,
2013-02-19 03:52:00,12.2,4.0,29.65,WNW,292,9.4,17.3,69,0.00,CLR,,0.00,WeatherDisplay:10.37,2013-02-19 09:52:00,
2013-02-19 03:57:00,12.2,4.0,29.65,WNW,292,8.1,12.7,69,0.00,CLR,,0.00,WeatherDisplay:10.37,2013-02-19 09:57:00,
2013-02-19 04:02:00,12.0,3.8,29.65,West,270,11.2,13.2,69,0.00,CLR,,0.00,WeatherDisplay:10.37,2013-02-19 10:02:00,
2013-02-19 04:07:00,12.0,3.8,29.65,WNW,292,5.9,13.8,69,0.00,CLR,,0.00,WeatherDisplay:10.37,2013-02-19 10:07:00,
2013-02-19 04:12:00,12.0,3.8,29.65,North,0,5.9,12.7,69,0.00,CLR,,0.00,WeatherDisplay:10.37,2013-02-19 10:12:00,
2013-02-19 04:17:00,12.0,3.8,29.65,West,270,8.1,13.8,69,0.00,CLR,,0.00,WeatherDisplay:10.37,2013-02-19 10:17:00,
2013-02-19 04:22:00,11.8,3.6,29.65,NW,315,4.9,10.4,69,0.00,CLR,,0.00,WeatherDisplay:10.37,2013-02-19 10:22:00,
2013-02-19 04:27:00,11.8,3.6,29.65,WNW,292,6.4,10.4,69,0.00,CLR,,0.00,WeatherDisplay:10.37,2013-02-19 10:27:00,
2013-02-19 04:32:00,11.8,3.6,29.65,NW,315,6.0,17.3,69,0.00,CLR,,0.00,WeatherDisplay:10.37,2013-02-19 10:32:00,
2013-02-19 04:37:00,11.8,3.6,29.65,NNW,338,7.1,9.7,69,0.00,CLR,,0.00,WeatherDisplay:10.37,2013-02-19 10:37:00,
2013-02-19 04:42:00,11.8,3.6,29.65,NW,315,7.1,13.8,69,0.00,CLR,,0.00,WeatherDisplay:10.37,2013-02-19 10:42:00,
2013-02-19 04:47:00,11.8,3.6,29.65,WNW,292,10.7,18.4,69,0.00,CLR,,0.00,WeatherDisplay:10.37,2013-02-19 10:47:00,
2013-02-19 04:52:00,11.8,3.6,29.65,WNW,292,7.8,9.2,69,0.00,CLR,,0.00,WeatherDisplay:10.37,2013-02-19 10:52:00,
2013-02-19 04:57:00,11.8,3.6,29.65,NW,315,10.0,12.3,69,0.00,CLR,,0.00,WeatherDisplay:10.37,2013-02-19 10:57:00,
2013-02-19 05:02:00,11.8,3.6,29.65,West,270,5.6,8.1,69,0.00,CLR,,0.00,WeatherDisplay:10.37,2013-02-19 11:02:00,
2013-02-19 05:07:00,11.7,3.4,29.65,NNW,338,6.0,12.8,69,0.00,CLR,,0.00,WeatherDisplay:10.37,2013-02-19 11:07:00,
2013-02-19 05:12:00,11.7,3.4,29.68,WNW,292,9.2,15.4,69,0.00,CLR,,0.00,WeatherDisplay:10.37,2013-02-19 11:12:00,
2013-02-19 05:17:00,11.3,3.1,29.68,WNW,292,13.0,20.7,69,0.00,CLR,,0.00,WeatherDisplay:10.37,2013-02-19 11:17:00,
2013-02-19 05:22:00,11.1,2.9,29.68,NW,315,11.4,15.0,69,0.00,CLR,,0.00,WeatherDisplay:10.37,2013-02-19 11:22:00,
2013-02-19 05:27:00,11.1,2.9,29.68,WNW,292,10.2,13.8,69,0.00,CLR,,0.00,WeatherDisplay:10.37,2013-02-19 11:27:00,
2013-02-19 05:32:00,10.9,2.8,29.68,WNW,292,7.4,12.8,69,0.00,CLR,,0.00,WeatherDisplay:10.37,2013-02-19 11:32:00,
2013-02-19 05:37:00,10.8,2.6,29.68,WNW,292,8.7,10.2,69,0.00,CLR,,0.00,WeatherDisplay:10.37,2013-02-19 11:37:00,
2013-02-19 05:42:00,10.8,2.6,29.68,WNW,292,9.2,9.2,69,0.00,CLR,,0.00,WeatherDisplay:10.37,2013-02-19 11:42:00,
2013-02-19 05:47:00,10.6,2.4,29.68,WSW,248,8.5,13.0,69,0.00,CLR,,0.00,WeatherDisplay:10.37,2013-02-19 11:47:00,
2013-02-19 05:52:00,10.4,2.2,29.68,WNW,292,8.5,12.7,69,0.00,CLR,,0.00,WeatherDisplay:10.37,2013-02-19 11:52:00,
2013-02-19 05:57:00,10.2,2.1,29.68,NW,315,7.6,13.8,69,0.00,CLR,,0.00,WeatherDisplay:10.37,2013-02-19 11:57:00,
2013-02-19 06:02:00,10.0,1.9,29.68,WNW,292,12.3,23.2,69,0.00,CLR,,0.00,WeatherDisplay:10.37,2013-02-19 12:02:00,
2013-02-19 06:07:00,9.9,1.7,29.68,West,270,8.5,12.7,69,0.00,CLR,,0.00,WeatherDisplay:10.37,2013-02-19 12:07:00,
2013-02-19 06:12:00,9.9,1.7,29.71,NW,315,3.1,10.4,69,0.00,CLR,,0.00,WeatherDisplay:10.37,2013-02-19 12:12:00,
2013-02-19 06:17:00,9.7,1.5,29.71,WNW,292,7.4,10.4,69,0.00,CLR,,0.00,WeatherDisplay:10.37,2013-02-19 12:17:00,
2013-02-19 06:22:00,9.5,1.4,29.71,WSW,248,9.4,11.5,69,0.00,CLR,,0.00,WeatherDisplay:10.37,2013-02-19 12:22:00,
2013-02-19 06:27:00,9.3,1.2,29.71,WNW,292,11.2,12.7,69,0.00,CLR,,0.00,WeatherDisplay:10.37,2013-02-19 12:27:00,
2013-02-19 06:32:00,9.3,1.2,29.71,WNW,292,11.2,15.0,69,0.00,CLR,,0.00,WeatherDisplay:10.37,2013-02-19 12:32:00,
2013-02-19 06:37:00,9.1,1.0,29.71,North,0,7.6,10.4,69,0.00,CLR,,0.00,WeatherDisplay:10.37,2013-02-19 12:37:00,
2013-02-19 06:42:00,9.1,1.0,29.71,West,270,9.0,12.7,69,0.00,CLR,,0.00,WeatherDisplay:10.37,2013-02-19 12:42:00,
2013-02-19 06:47:00,9.1,1.0,29.71,WNW,292,10.0,12.7,69,0.00,CLR,,0.00,WeatherDisplay:10.37,2013-02-19 12:47:00,
2013-02-19 06:52:00,9.0,0.9,29.71,West,270,7.4,11.5,69,0.00,CLR,,0.00,WeatherDisplay:10.37,2013-02-19 12:52:00,
2013-02-19 06:57:00,8.8,0.7,29.71,WNW,292,11.8,17.3,69,0.00,CLR,,0.00,WeatherDisplay:10.37,2013-02-19 12:57:00,
2013-02-19 07:02:00,8.8,0.7,29.71,West,270,7.1,9.2,69,0.00,CLR,,0.00,WeatherDisplay:10.37,2013-02-19 13:02:00,
2013-02-19 07:08:00,8.6,0.5,29.71,West,270,10.9,12.7,69,0.00,CLR,,0.00,WeatherDisplay:10.37,2013-02-19 13:08:00,
2013-02-19 07:13:00,8.6,0.5,29.74,NNW,338,7.6,13.8,69,0.00,CLR,,0.00,WeatherDisplay:10.37,2013-02-19 13:13:00,
2013-02-19 07:18:00,8.6,0.5,29.74,WNW,292,10.9,11.5,69,0.00,CLR,,0.00,WeatherDisplay:10.37,2013-02-19 13:18:00,
2013-02-19 07:23:00,8.6,0.5,29.74,NW,315,12.8,12.8,69,0.00,CLR,,0.00,WeatherDisplay:10.37,2013-02-19 13:23:00,
2013-02-19 07:28:00,8.6,0.5,29.77,NW,315,6.7,8.7,69,0.00,CLR,,0.00,WeatherDisplay:10.37,2013-02-19 13:28:00,
2013-02-19 07:33:00,8.6,0.5,29.77,SW,225,9.0,12.7,69,0.00,CLR,,0.00,WeatherDisplay:10.37,2013-02-19 13:33:00,
2013-02-19 07:38:00,8.6,0.5,29.77,WNW,292,9.8,12.8,69,0.00,CLR,,0.00,WeatherDisplay:10.37,2013-02-19 13:38:00,
2013-02-19 07:43:00,8.6,0.5,29.77,West,270,9.7,13.8,69,0.00,CLR,,0.00,WeatherDisplay:10.37,2013-02-19 13:43:00,
2013-02-19 07:48:00,8.4,0.3,29.77,NNW,338,10.5,10.5,69,0.00,CLR,,0.00,WeatherDisplay:10.37,2013-02-19 13:48:00,
2013-02-19 07:53:00,8.6,0.5,29.77,SSW,202,7.8,11.5,69,0.00,CLR,,0.00,WeatherDisplay:10.37,2013-02-19 13:53:00,
2013-02-19 07:58:00,8.6,0.5,29.74,NW,315,8.7,15.0,69,0.00,CLR,,0.00,WeatherDisplay:10.37,2013-02-19 13:58:00,
2013-02-19 08:03:00,8.4,0.3,29.74,NW,315,10.5,19.6,69,0.00,CLR,,0.00,WeatherDisplay:10.37,2013-02-19 14:03:00,
2013-02-19 08:08:00,8.4,0.3,29.74,West,270,10.0,16.1,69,0.00,CLR,,0.00,WeatherDisplay:10.37,2013-02-19 14:08:00,
2013-02-19 08:13:00,8.1,0.0,29.77,WNW,292,10.2,15.0,69,0.00,CLR,,0.00,WeatherDisplay:10.37,2013-02-19 14:13:00,
2013-02-19 08:18:00,8.1,0.0,29.77,NW,315,8.5,10.4,69,0.00,CLR,,0.00,WeatherDisplay:10.37,2013-02-19 14:18:00,
2013-02-19 08:23:00,8.1,0.0,29.77,NW,315,11.4,15.9,69,0.00,CLR,,0.00,WeatherDisplay:10.37,2013-02-19 14:23:00,
2013-02-19 08:28:00,8.1,0.0,29.77,WNW,292,9.7,10.4,69,0.00,CLR,,0.00,WeatherDisplay:10.37,2013-02-19 14:28:00,
2013-02-19 08:33:00,8.4,0.3,29.77,WNW,292,7.6,11.5,69,0.00,CLR,,0.00,WeatherDisplay:10.37,2013-02-19 14:33:00,
2013-02-19 08:38:00,8.6,0.5,29.77,NW,315,5.9,12.7,69,0.00,CLR,,0.00,WeatherDisplay:10.37,2013-02-19 14:38:00,
2013-02-19 08:43:00,8.4,0.3,29.80,North,0,13.0,15.0,69,0.00,CLR,,0.00,WeatherDisplay:10.37,2013-02-19 14:43:00,
2013-02-19 08:48:00,8.6,0.5,29.80,North,0,10.2,13.8,69,0.00,CLR,,0.00,WeatherDisplay:10.37,2013-02-19 14:48:00,
2013-02-19 08:53:00,8.6,0.5,29.80,NW,315,13.7,19.6,69,0.00,CLR,,0.00,WeatherDisplay:10.37,2013-02-19 14:53:00,
2013-02-19 08:58:00,8.6,0.5,29.80,West,270,14.3,14.3,69,0.00,CLR,,0.00,WeatherDisplay:10.37,2013-02-19 14:58:00,
2013-02-19 09:03:00,8.6,0.5,29.80,NW,315,11.2,19.6,69,0.00,CLR,,0.00,WeatherDisplay:10.37,2013-02-19 15:03:00,
2013-02-19 09:08:00,9.0,0.9,29.80,WNW,292,7.1,8.5,69,0.00,CLR,,0.00,WeatherDisplay:10.37,2013-02-19 15:08:00,
2013-02-19 09:13:00,9.1,1.0,29.80,NW,315,12.5,18.4,69,0.00,CLR,,0.00,WeatherDisplay:10.37,2013-02-19 15:13:00,
2013-02-19 09:18:00,9.3,1.2,29.80,WNW,292,12.1,13.8,69,0.00,CLR,,0.00,WeatherDisplay:10.37,2013-02-19 15:18:00,
2013-02-19 09:23:00,9.3,1.2,29.80,WNW,292,13.2,17.3,69,0.00,CLR,,0.00,WeatherDisplay:10.37,2013-02-19 15:23:00,
2013-02-19 09:28:00,10.6,2.4,29.83,NW,315,8.1,13.8,69,0.00,CLR,,0.00,WeatherDisplay:10.37,2013-02-19 15:28:00,
2013-02-19 09:33:00,11.7,3.4,29.83,WNW,292,7.1,13.8,69,0.00,CLR,,0.00,WeatherDisplay:10.37,2013-02-19 15:33:00,
2013-02-19 09:38:00,10.0,1.9,29.83,West,270,15.4,23.0,69,0.00,CLR,,0.00,WeatherDisplay:10.37,2013-02-19 15:38:00,
2013-02-19 09:43:00,9.7,1.5,29.83,WNW,292,15.6,23.0,69,0.00,CLR,,0.00,WeatherDisplay:10.37,2013-02-19 15:43:00,
2013-02-19 09:48:00,10.4,2.2,29.83,NW,315,11.8,16.1,69,0.00,CLR,,0.00,WeatherDisplay:10.37,2013-02-19 15:48:00,
2013-02-19 09:53:00,10.4,2.2,29.83,NNW,338,13.7,17.3,69,0.00,CLR,,0.00,WeatherDisplay:10.37,2013-02-19 15:53:00,
2013-02-19 09:58:00,11.1,2.9,29.83,WNW,292,6.9,14.7,69,0.00,CLR,,0.00,WeatherDisplay:10.37,2013-02-19 15:58:00,
2013-02-19 10:03:00,11.1,2.9,29.83,NW,315,7.8,12.7,69,0.00,CLR,,0.00,WeatherDisplay:10.37,2013-02-19 16:03:00,
2013-02-19 10:08:00,11.1,2.9,29.83,NW,315,9.2,12.7,69,0.00,CLR,,0.00,WeatherDisplay:10.37,2013-02-19 16:08:00,
2013-02-19 10:13:00,10.8,2.6,29.83,WNW,292,10.7,13.8,69,0.00,CLR,,0.00,WeatherDisplay:10.37,2013-02-19 16:13:00,
2013-02-19 10:18:00,10.9,2.8,29.83,WNW,292,11.8,17.3,69,0.00,CLR,,0.00,WeatherDisplay:10.37,2013-02-19 16:18:00,
2013-02-19 10:23:00,10.8,2.6,29.83,WNW,292,9.8,11.5,69,0.00,CLR,,0.00,WeatherDisplay:10.37,2013-02-19 16:23:00,
2013-02-19 10:28:00,11.3,3.1,29.83,WNW,292,10.2,16.1,69,0.00,CLR,,0.00,WeatherDisplay:10.37,2013-02-19 16:28:00,
2013-02-19 10:33:00,10.8,2.6,29.83,NW,315,10.0,12.7,69,0.00,CLR,,0.00,WeatherDisplay:10.37,2013-02-19 16:33:00,
2013-02-19 10:38:00,10.8,2.6,29.83,WNW,292,6.7,9.2,69,0.00,CLR,,0.00,WeatherDisplay:10.37,2013-02-19 16:38:00,
2013-02-19 10:43:00,9.9,1.7,29.83,WNW,292,9.8,17.6,69,0.00,CLR,,0.00,WeatherDisplay:10.37,2013-02-19 16:43:00,
2013-02-19 10:48:00,9.7,1.5,29.83,WNW,292,14.5,20.7,69,0.00,CLR,,0.00,WeatherDisplay:10.37,2013-02-19 16:48:00,
2013-02-19 10:53:00,10.2,2.1,29.83,WSW,248,9.7,15.0,69,0.00,CLR,,0.00,WeatherDisplay:10.37,2013-02-19 16:53:00,
2013-02-19 10:58:00,9.5,1.4,29.86,WNW,292,15.9,17.5,69,0.00,CLR,,0.00,WeatherDisplay:10.37,2013-02-19 16:58:00,
2013-02-19 11:03:00,10.9,2.8,29.86,West,270,13.7,17.6,69,0.00,CLR,,0.00,WeatherDisplay:10.37,2013-02-19 17:03:00,
2013-02-19 11:08:00,10.8,2.6,29.86,NW,315,10.9,15.0,69,0.00,CLR,,0.00,WeatherDisplay:10.37,2013-02-19 17:08:00,
2013-02-19 11:13:00,10.8,2.6,29.89,NNW,338,12.8,15.0,69,0.00,CLR,,0.00,WeatherDisplay:10.37,2013-02-19 17:13:00,
2013-02-19 11:18:00,11.3,3.1,29.89,WNW,292,8.1,13.0,69,0.00,CLR,,0.00,WeatherDisplay:10.37,2013-02-19 17:18:00,
2013-02-19 11:23:00,11.1,2.9,29.89,NW,315,10.9,13.8,69,0.00,CLR,,0.00,WeatherDisplay:10.37,2013-02-19 17:23:00,
2013-02-19 11:28:00,11.3,3.1,29.89,WNW,292,15.9,25.3,69,0.00,CLR,,0.00,WeatherDisplay:10.37,2013-02-19 17:28:00,
2013-02-19 11:33:00,11.7,3.4,29.89,WNW,292,9.8,10.0,69,0.00,CLR,,0.00,WeatherDisplay:10.37,2013-02-19 17:33:00,
2013-02-19 11:38:00,12.9,4.7,29.89,WNW,292,8.7,10.9,69,0.00,CLR,,0.00,WeatherDisplay:10.37,2013-02-19 17:38:00,
2013-02-19 11:43:00,11.8,3.6,29.89,WNW,292,11.4,13.8,69,0.00,CLR,,0.00,WeatherDisplay:10.37,2013-02-19 17:43:00,
2013-02-19 11:48:00,12.0,3.8,29.89,NNW,338,8.1,12.7,69,0.00,CLR,,0.00,WeatherDisplay:10.37,2013-02-19 17:48:00,
2013-02-19 11:53:00,12.0,3.8,29.89,NW,315,9.8,16.1,69,0.00,CLR,,0.00,WeatherDisplay:10.37,2013-02-19 17:53:00,
2013-02-19 11:58:00,11.3,3.1,29.89,WNW,292,11.8,18.4,69,0.00,CLR,,0.00,WeatherDisplay:10.37,2013-02-19 17:58:00,
2013-02-19 12:03:00,12.7,4.5,29.89,NW,315,10.7,17.3,69,0.00,CLR,,0.00,WeatherDisplay:10.37,2013-02-19 18:03:00,
2013-02-19 12:08:00,12.4,4.1,29.89,WNW,292,15.2,17.3,69,0.00,CLR,,0.00,WeatherDisplay:10.37,2013-02-19 18:08:00,
2013-02-19 12:13:00,12.9,4.7,29.89,WNW,292,10.7,15.0,69,0.00,CLR,,0.00,WeatherDisplay:10.37,2013-02-19 18:13:00,
2013-02-19 12:18:00,13.8,5.5,29.89,NNE,22,8.1,12.7,69,0.00,CLR,,0.00,WeatherDisplay:10.37,2013-02-19 18:18:00,
2013-02-19 12:23:00,14.4,-3.6,29.89,NW,315,6.7,12.7,44,0.00,CLR,,0.00,WeatherDisplay:10.37,2013-02-19 18:23:00,
2013-02-19 12:28:00,12.4,-5.4,29.89,West,270,12.3,17.6,44,0.00,CLR,,0.00,WeatherDisplay:10.37,2013-02-19 18:28:00,
2013-02-19 12:33:00,13.3,-4.6,29.89,NW,315,10.7,12.7,44,0.00,CLR,,0.00,WeatherDisplay:10.37,2013-02-19 18:33:00,
2013-02-19 12:38:00,13.3,-4.6,29.89,NW,315,13.5,15.0,44,0.00,CLR,,0.00,WeatherDisplay:10.37,2013-02-19 18:38:00,
2013-02-19 12:43:00,13.1,-4.8,29.89,WNW,292,14.5,17.3,44,0.00,CLR,,0.00,WeatherDisplay:10.37,2013-02-19 18:43:00,
2013-02-19 12:48:00,12.9,-4.9,29.89,NW,315,12.1,16.1,44,0.00,CLR,,0.00,WeatherDisplay:10.37,2013-02-19 18:48:00,
2013-02-19 12:53:00,13.6,-4.3,29.89,NW,315,9.4,13.8,44,0.00,CLR,,0.00,WeatherDisplay:10.37,2013-02-19 18:53:00,
2013-02-19 12:58:00,13.3,-4.6,29.89,NW,315,11.8,19.6,44,0.00,CLR,,0.00,WeatherDisplay:10.37,2013-02-19 18:58:00,
2013-02-19 13:03:00,14.0,-3.9,29.89,West,270,8.5,12.7,44,0.00,CLR,,0.00,WeatherDisplay:10.37,2013-02-19 19:03:00,
2013-02-19 13:08:00,14.5,-3.5,29.89,WNW,292,10.0,13.0,44,0.00,CLR,,0.00,WeatherDisplay:10.37,2013-02-19 19:08:00,
2013-02-19 13:13:00,12.9,-4.9,29.92,NW,315,15.4,25.3,44,0.00,CLR,,0.00,WeatherDisplay:10.37,2013-02-19 19:13:00,
2013-02-19 13:18:00,13.8,-4.1,29.92,WNW,292,7.4,10.7,44,0.00,CLR,,0.00,WeatherDisplay:10.37,2013-02-19 19:18:00,
2013-02-19 13:23:00,12.7,-5.1,29.92,NW,315,9.0,16.1,44,0.00,CLR,,0.00,WeatherDisplay:10.37,2013-02-19 19:23:00,
2013-02-19 13:28:00,14.7,-3.3,29.92,WNW,292,9.2,10.4,44,0.00,CLR,,0.00,WeatherDisplay:10.37,2013-02-19 19:28:00,
2013-02-19 13:33:00,14.2,-3.8,29.92,NNW,338,5.6,8.1,44,0.00,CLR,,0.00,WeatherDisplay:10.37,2013-02-19 19:33:00,
2013-02-19 13:38:00,13.3,-4.6,29.92,WNW,292,12.1,12.7,44,0.00,CLR,,0.00,WeatherDisplay:10.37,2013-02-19 19:38:00,
2013-02-19 13:43:00,12.6,-5.3,29.92,NW,315,11.2,25.3,44,0.00,CLR,,0.00,WeatherDisplay:10.37,2013-02-19 19:43:00,
2013-02-19 13:48:00,12.9,-4.9,29.92,NNW,338,7.4,15.2,44,0.00,CLR,,0.00,WeatherDisplay:10.37,2013-02-19 19:48:00,
2013-02-19 13:53:00,12.0,-5.8,29.92,WNW,292,11.8,20.7,44,0.00,CLR,,0.00,WeatherDisplay:10.37,2013-02-19 19:53:00,
2013-02-19 13:58:00,12.0,-5.8,29.92,North,0,13.0,15.0,44,0.00,CLR,,0.00,WeatherDisplay:10.37,2013-02-19 19:58:00,
2013-02-19 14:03:00,11.7,-6.1,29.92,NW,315,11.8,20.7,44,0.00,CLR,,0.00,WeatherDisplay:10.37,2013-02-19 20:03:00,
2013-02-19 14:08:00,12.2,-5.6,29.92,WNW,292,12.1,15.0,44,0.00,CLR,,0.00,WeatherDisplay:10.37,2013-02-19 20:08:00,
2013-02-19 14:13:00,11.3,-6.4,29.95,West,270,15.6,23.2,44,0.00,CLR,,0.00,WeatherDisplay:10.37,2013-02-19 20:13:00,
2013-02-19 14:18:00,11.1,-6.6,29.95,WSW,248,11.2,17.3,44,0.00,CLR,,0.00,WeatherDisplay:10.37,2013-02-19 20:18:00,
2013-02-19 14:23:00,12.0,-5.8,29.95,WNW,292,7.6,10.4,44,0.00,CLR,,0.00,WeatherDisplay:10.37,2013-02-19 20:23:00,
2013-02-19 14:28:00,11.8,-5.9,29.95,NW,315,10.9,13.8,44,0.00,CLR,,0.00,WeatherDisplay:10.37,2013-02-19 20:28:00,
2013-02-19 14:33:00,12.7,-5.1,29.95,NW,315,7.4,9.2,44,0.00,CLR,,0.00,WeatherDisplay:10.37,2013-02-19 20:33:00,
2013-02-19 14:38:00,12.7,-5.1,29.95,NNW,338,6.4,13.8,44,0.00,CLR,,0.00,WeatherDisplay:10.37,2013-02-19 20:38:00,
2013-02-19 14:43:00,12.2,-5.6,29.98,NW,315,13.2,17.3,44,0.00,CLR,,0.00,WeatherDisplay:10.37,2013-02-19 20:43:00,
2013-02-19 14:48:00,12.6,-5.3,29.98,WNW,292,11.2,15.2,44,0.00,CLR,,0.00,WeatherDisplay:10.37,2013-02-19 20:48:00,
2013-02-19 14:53:00,12.2,-5.6,29.98,NW,315,13.0,17.3,44,0.00,CLR,,0.00,WeatherDisplay:10.37,2013-02-19 20:53:00,
2013-02-19 14:58:00,13.1,-4.8,29.95,NNW,338,7.4,10.4,44,0.00,CLR,,0.00,WeatherDisplay:10.37,2013-02-19 20:58:00,
2013-02-19 15:03:00,12.9,-4.9,29.95,WNW,292,11.2,12.3,44,0.00,CLR,,0.00,WeatherDisplay:10.37,2013-02-19 21:03:00,
2013-02-19 15:08:00,12.4,-5.4,29.95,West,270,13.2,19.6,44,0.00,CLR,,0.00,WeatherDisplay:10.37,2013-02-19 21:08:00,
2013-02-19 15:13:00,12.4,-5.4,29.95,WNW,292,14.0,16.1,44,0.00,CLR,,0.00,WeatherDisplay:10.37,2013-02-19 21:13:00,
2013-02-19 15:18:00,12.2,-5.6,29.95,NW,315,12.8,17.3,44,0.00,CLR,,0.00,WeatherDisplay:10.37,2013-02-19 21:18:00,
2013-02-19 15:23:00,12.2,-5.6,29.95,NW,315,9.8,15.0,44,0.00,CLR,,0.00,WeatherDisplay:10.37,2013-02-19 21:23:00,
2013-02-19 15:28:00,12.9,-4.9,29.98,WNW,292,9.7,15.0,44,0.00,CLR,,0.00,WeatherDisplay:10.37,2013-02-19 21:28:00,
2013-02-19 15:34:00,12.6,-5.3,29.98,WNW,292,11.2,13.7,44,0.00,CLR,,0.00,WeatherDisplay:10.37,2013-02-19 21:34:00,
2013-02-19 15:39:00,12.6,-5.3,29.98,North,0,9.2,11.5,44,0.00,CLR,,0.00,WeatherDisplay:10.37,2013-02-19 21:39:00,
2013-02-19 15:44:00,12.2,-5.6,29.98,West,270,13.0,13.0,44,0.00,CLR,,0.00,WeatherDisplay:10.37,2013-02-19 21:44:00,
2013-02-19 15:49:00,12.0,-5.8,29.98,NNW,338,9.0,18.4,44,0.00,CLR,,0.00,WeatherDisplay:10.37,2013-02-19 21:49:00,
2013-02-19 15:54:00,12.9,-4.9,29.98,WNW,292,7.6,12.7,44,0.00,CLR,,0.00,WeatherDisplay:10.37,2013-02-19 21:54:00,
2013-02-19 15:59:00,12.9,-4.9,30.01,West,270,6.2,10.4,44,0.00,CLR,,0.00,WeatherDisplay:10.37,2013-02-19 21:59:00,
2013-02-19 16:04:00,12.6,-5.3,30.01,WNW,292,8.1,12.1,44,0.00,CLR,,0.00,WeatherDisplay:10.37,2013-02-19 22:04:00,
2013-02-19 16:09:00,11.8,-5.9,30.01,West,270,13.2,20.7,44,0.00,CLR,,0.00,WeatherDisplay:10.37,2013-02-19 22:09:00,
2013-02-19 16:14:00,12.0,-5.8,30.01,NW,315,9.0,9.0,44,0.00,CLR,,0.00,WeatherDisplay:10.37,2013-02-19 22:14:00,
2013-02-19 16:19:00,11.8,-5.9,30.01,WNW,292,9.8,13.2,44,0.00,CLR,,0.00,WeatherDisplay:10.37,2013-02-19 22:19:00,
2013-02-19 16:24:00,11.8,-5.9,30.01,NW,315,9.4,11.5,44,0.00,CLR,,0.00,WeatherDisplay:10.37,2013-02-19 22:24:00,
2013-02-19 16:29:00,11.7,-6.1,30.01,NW,315,7.4,8.7,44,0.00,CLR,,0.00,WeatherDisplay:10.37,2013-02-19 22:29:00,
2013-02-19 16:34:00,11.1,-6.6,30.01,WNW,292,10.9,15.0,44,0.00,CLR,,0.00,WeatherDisplay:10.37,2013-02-19 22:34:00,
2013-02-19 16:39:00,11.5,-6.3,30.01,WNW,292,7.1,9.2,44,0.00,CLR,,0.00,WeatherDisplay:10.37,2013-02-19 22:39:00,
2013-02-19 16:44:00,11.1,-6.6,30.01,NNW,338,6.4,10.4,44,0.00,CLR,,0.00,WeatherDisplay:10.37,2013-02-19 22:44:00,
2013-02-19 16:49:00,10.8,-6.9,30.01,NW,315,6.7,10.4,44,0.00,CLR,,0.00,WeatherDisplay:10.37,2013-02-19 22:49:00,
2013-02-19 16:54:00,10.2,-7.4,30.01,NNW,338,8.5,21.9,44,0.00,CLR,,0.00,WeatherDisplay:10.37,2013-02-19 22:54:00,
2013-02-19 16:59:00,10.0,-7.6,30.01,NW,315,12.1,17.3,44,0.00,CLR,,0.00,WeatherDisplay:10.37,2013-02-19 22:59:00,
2013-02-19 17:04:00,9.9,-7.7,30.01,NW,315,10.5,12.7,44,0.00,CLR,,0.00,WeatherDisplay:10.37,2013-02-19 23:04:00,
2013-02-19 17:09:00,9.7,-7.9,30.01,WNW,292,6.2,8.1,44,0.00,CLR,,0.00,WeatherDisplay:10.37,2013-02-19 23:09:00,
2013-02-19 17:14:00,9.5,-8.1,30.04,WNW,292,9.0,12.7,44,0.00,CLR,,0.00,WeatherDisplay:10.37,2013-02-19 23:14:00,
2013-02-19 17:19:00,9.3,-8.2,30.04,WNW,292,7.4,10.4,44,0.00,CLR,,0.00,WeatherDisplay:10.37,2013-02-19 23:19:00,
2013-02-19 17:24:00,9.3,-8.2,30.04,North,0,5.6,7.4,44,0.00,CLR,,0.00,WeatherDisplay:10.37,2013-02-19 23:24:00,
2013-02-19 17:29:00,9.1,-8.4,30.04,WNW,292,9.0,11.5,44,0.00,CLR,,0.00,WeatherDisplay:10.37,2013-02-19 23:29:00,
2013-02-19 17:34:00,9.1,-8.4,30.04,WNW,292,7.1,9.2,44,0.00,CLR,,0.00,WeatherDisplay:10.37,2013-02-19 23:34:00,
2013-02-19 17:39:00,9.0,-8.6,30.04,WNW,292,7.1,12.7,44,0.00,CLR,,0.00,WeatherDisplay:10.37,2013-02-19 23:39:00,
2013-02-19 17:44:00,8.8,-8.7,30.04,NW,315,6.4,10.4,44,0.00,CLR,,0.00,WeatherDisplay:10.37,2013-02-19 23:44:00,
2013-02-19 17:49:00,8.8,-8.7,30.04,West,270,4.7,12.8,44,0.00,CLR,,0.00,WeatherDisplay:10.37,2013-02-19 23:49:00,
2013-02-19 17:54:00,8.8,-8.7,30.07,WNW,292,9.0,17.3,44,0.00,CLR,,0.00,WeatherDisplay:10.37,2013-02-19 23:54:00,
2013-02-19 17:59:00,8.8,-8.7,30.07,WNW,292,9.7,10.4,44,0.00,CLR,,0.00,WeatherDisplay:10.37,2013-02-19 23:59:00,
2013-02-19 18:04:00,8.8,-8.7,30.07,WNW,292,6.0,6.9,44,0.00,CLR,,0.00,WeatherDisplay:10.37,2013-02-20 00:04:00,
2013-02-19 18:09:00,8.8,-8.7,30.07,NW,315,10.2,10.4,44,0.00,CLR,,0.00,WeatherDisplay:10.37,2013-02-20 00:09:00,
2013-02-19 18:14:00,8.8,-8.7,30.07,WNW,292,7.8,10.4,44,0.00,CLR,,0.00,WeatherDisplay:10.37,2013-02-20 00:14:00,
2013-02-19 18:19:00,8.8,-8.7,30.07,West,270,7.6,12.7,44,0.00,CLR,,0.00,WeatherDisplay:10.37,2013-02-20 00:19:00,
2013-02-19 18:24:00,8.8,-8.7,30.04,WNW,292,13.2,19.6,44,0.00,CLR,,0.00,WeatherDisplay:10.37,2013-02-20 00:24:00,
2013-02-19 18:29:00,8.8,-8.7,30.04,NW,315,11.4,18.4,44,0.00,CLR,,0.00,WeatherDisplay:10.37,2013-02-20 00:29:00,
2013-02-19 18:34:00,8.8,-8.7,30.04,West,270,12.8,17.3,44,0.00,CLR,,0.00,WeatherDisplay:10.37,2013-02-20 00:34:00,
2013-02-19 18:40:00,8.8,-8.7,30.07,WNW,292,9.0,17.3,44,0.00,CLR,,0.00,WeatherDisplay:10.37,2013-02-20 00:40:00,
2013-02-19 18:45:00,8.8,-8.7,30.07,West,270,7.6,10.9,44,0.00,CLR,,0.00,WeatherDisplay:10.37,2013-02-20 00:45:00,
2013-02-19 18:50:00,8.8,-8.7,30.07,WNW,292,10.9,14.7,44,0.00,CLR,,0.00,WeatherDisplay:10.37,2013-02-20 00:50:00,
2013-02-19 18:55:00,8.6,-8.9,30.07,West,270,7.1,8.1,44,0.00,CLR,,0.00,WeatherDisplay:10.37,2013-02-20 00:55:00,
2013-02-19 19:00:00,8.4,-9.1,30.07,WNW,292,6.0,10.9,44,0.00,CLR,,0.00,WeatherDisplay:10.37,2013-02-20 01:00:00,
2013-02-19 19:05:00,8.4,-9.1,30.07,NW,315,10.7,13.8,44,0.00,CLR,,0.00,WeatherDisplay:10.37,2013-02-20 01:05:00,
2013-02-19 19:10:00,8.2,-9.2,30.07,NNW,338,7.1,12.7,44,0.00,CLR,,0.00,WeatherDisplay:10.37,2013-02-20 01:10:00,
2013-02-19 19:15:00,8.1,-9.4,30.07,WNW,292,7.6,12.8,44,0.00,CLR,,0.00,WeatherDisplay:10.37,2013-02-20 01:15:00,
2013-02-19 19:20:00,8.1,-9.4,30.07,West,270,9.0,12.7,44,0.00,CLR,,0.00,WeatherDisplay:10.37,2013-02-20 01:20:00,
2013-02-19 19:25:00,8.1,-9.4,30.13,WNW,292,8.5,12.7,44,0.00,CLR,,0.00,WeatherDisplay:10.37,2013-02-20 01:25:00,
2013-02-19 19:30:00,8.1,-9.4,30.13,WNW,292,9.8,12.7,44,0.00,CLR,,0.00,WeatherDisplay:10.37,2013-02-20 01:30:00,
2013-02-19 19:35:00,7.9,-9.6,30.13,WNW,292,8.1,12.7,44,0.00,CLR,,0.00,WeatherDisplay:10.37,2013-02-20 01:35:00,
2013-02-19 19:40:00,7.7,-9.7,30.13,NNW,338,6.4,10.4,44,0.00,CLR,,0.00,WeatherDisplay:10.37,2013-02-20 01:40:00,
2013-02-19 19:45:00,7.7,-9.7,30.13,WNW,292,9.2,10.4,44,0.00,CLR,,0.00,WeatherDisplay:10.37,2013-02-20 01:45:00,
2013-02-19 19:50:00,7.7,-9.7,30.13,NW,315,9.4,13.8,44,0.00,CLR,,0.00,WeatherDisplay:10.37,2013-02-20 01:50:00,
2013-02-19 19:55:00,7.7,-9.7,30.16,NW,315,6.9,8.5,44,0.00,CLR,,0.00,WeatherDisplay:10.37,2013-02-20 01:55:00,
2013-02-19 20:00:00,7.7,-9.7,30.16,NW,315,7.1,7.1,44,0.00,CLR,,0.00,WeatherDisplay:10.37,2013-02-20 02:00:00,
2013-02-19 20:05:00,7.5,-9.9,30.16,WNW,292,6.7,9.2,44,0.00,CLR,,0.00,WeatherDisplay:10.37,2013-02-20 02:05:00,
2013-02-19 20:10:00,7.5,-9.9,30.13,WNW,292,7.6,12.7,44,0.00,CLR,,0.00,WeatherDisplay:10.37,2013-02-20 02:10:00,
2013-02-19 20:15:00,7.5,-9.9,30.13,NNW,338,8.5,10.4,44,0.00,CLR,,0.00,WeatherDisplay:10.37,2013-02-20 02:15:00,
2013-02-19 20:20:00,7.5,-9.9,30.13,North,0,11.8,15.0,44,0.00,CLR,,0.00,WeatherDisplay:10.37,2013-02-20 02:20:00,
2013-02-19 20:25:00,7.3,-10.1,30.13,NW,315,7.4,10.4,44,0.00,CLR,,0.00,WeatherDisplay:10.37,2013-02-20 02:25:00,
2013-02-19 20:30:00,7.3,-10.1,30.13,NNW,338,7.6,12.7,44,0.00,CLR,,0.00,WeatherDisplay:10.37,2013-02-20 02:30:00,
2013-02-19 20:35:00,7.2,-10.2,30.13,NW,315,9.8,17.3,44,0.00,CLR,,0.00,WeatherDisplay:10.37,2013-02-20 02:35:00,
2013-02-19 20:40:00,7.2,-10.2,30.13,North,0,8.7,9.2,44,0.00,CLR,,0.00,WeatherDisplay:10.37,2013-02-20 02:40:00,
2013-02-19 20:45:00,7.2,-10.2,30.13,WNW,292,10.0,16.1,44,0.00,CLR,,0.00,WeatherDisplay:10.37,2013-02-20 02:45:00,
2013-02-19 20:50:00,7.2,-10.2,30.13,NW,315,5.9,12.7,44,0.00,CLR,,0.00,WeatherDisplay:10.37,2013-02-20 02:50:00,
2013-02-19 20:55:00,7.0,-10.4,30.16,WNW,292,7.1,10.4,44,0.00,CLR,,0.00,WeatherDisplay:10.37,2013-02-20 02:55:00,
2013-02-19 21:00:00,7.0,-10.4,30.16,NNW,338,9.8,10.4,44,0.00,CLR,,0.00,WeatherDisplay:10.37,2013-02-20 03:00:00,
2013-02-19 21:05:00,6.8,-10.5,30.16,NW,315,6.4,6.4,44,0.00,CLR,,0.00,WeatherDisplay:10.37,2013-02-20 03:05:00,
2013-02-19 21:10:00,6.8,-10.5,30.16,NW,315,6.0,8.1,44,0.00,CLR,,0.00,WeatherDisplay:10.37,2013-02-20 03:10:00,
2013-02-19 21:15:00,6.8,-10.5,30.16,NW,315,10.0,16.1,44,0.00,CLR,,0.00,WeatherDisplay:10.37,2013-02-20 03:15:00,
2013-02-19 21:20:00,6.8,-10.5,30.16,WNW,292,7.4,8.1,44,0.00,CLR,,0.00,WeatherDisplay:10.37,2013-02-20 03:20:00,
2013-02-19 21:25:00,6.4,-10.9,30.16,NW,315,11.2,11.5,44,0.00,CLR,,0.00,WeatherDisplay:10.37,2013-02-20 03:25:00,
2013-02-19 21:30:00,6.6,-10.7,30.16,NW,315,5.9,10.4,44,0.00,CLR,,0.00,WeatherDisplay:10.37,2013-02-20 03:30:00,
2013-02-19 21:35:00,6.4,-10.9,30.16,NW,315,8.5,8.5,44,0.00,CLR,,0.00,WeatherDisplay:10.37,2013-02-20 03:35:00,
2013-02-19 21:40:00,6.4,-10.9,30.16,NNW,338,7.8,9.2,44,0.00,CLR,,0.00,WeatherDisplay:10.37,2013-02-20 03:40:00,
2013-02-19 21:45:00,6.3,-11.0,30.16,NNW,338,6.7,7.4,44,0.00,CLR,,0.00,WeatherDisplay:10.37,2013-02-20 03:45:00,
2013-02-19 21:50:00,6.3,-11.0,30.16,NW,315,7.8,11.5,44,0.00,CLR,,0.00,WeatherDisplay:10.37,2013-02-20 03:50:00,
2013-02-19 21:55:00,6.3,-11.0,30.19,North,0,7.6,10.4,44,0.00,CLR,,0.00,WeatherDisplay:10.37,2013-02-20 03:55:00,
2013-02-19 22:00:00,6.1,-11.2,30.19,WNW,292,7.6,9.2,44,0.00,CLR,,0.00,WeatherDisplay:10.37,2013-02-20 04:00:00,
2013-02-19 22:05:00,6.1,-11.2,30.19,WNW,292,10.0,10.4,44,0.00,CLR,,0.00,WeatherDisplay:10.37,2013-02-20 04:05:00,
2013-02-19 22:10:00,6.1,-11.2,30.19,NW,315,7.6,9.2,44,0.00,CLR,,0.00,WeatherDisplay:10.37,2013-02-20 04:10:00,
2013-02-19 22:15:00,6.1,-11.2,30.19,NW,315,10.2,15.2,44,0.00,CLR,,0.00,WeatherDisplay:10.37,2013-02-20 04:15:00,
2013-02-19 22:20:00,5.9,-11.4,30.19,NW,315,5.4,10.4,44,0.00,CLR,,0.00,WeatherDisplay:10.37,2013-02-20 04:20:00,
2013-02-19 22:25:00,5.7,-11.5,30.19,NW,315,7.4,8.1,44,0.00,CLR,,0.00,WeatherDisplay:10.37,2013-02-20 04:25:00,
2013-02-19 22:30:00,5.7,-11.5,30.19,NW,315,5.6,6.9,44,0.00,CLR,,0.00,WeatherDisplay:10.37,2013-02-20 04:30:00,
2013-02-19 22:35:00,5.5,-11.7,30.19,WNW,292,6.7,10.4,44,0.00,CLR,,0.00,WeatherDisplay:10.37,2013-02-20 04:35:00,
2013-02-19 22:40:00,5.5,-11.7,30.19,WNW,292,10.2,10.2,44,0.00,CLR,,0.00,WeatherDisplay:10.37,2013-02-20 04:40:00,
2013-02-19 22:45:00,5.7,-11.5,30.19,NW,315,6.9,12.7,44,0.00,CLR,,0.00,WeatherDisplay:10.37,2013-02-20 04:45:00,
2013-02-19 22:50:00,5.5,-11.7,30.19,NW,315,8.7,10.4,44,0.00,CLR,,0.00,WeatherDisplay:10.37,2013-02-20 04:50:00,
2013-02-19 22:55:00,5.5,-11.7,30.19,NW,315,6.4,11.5,44,0.00,CLR,,0.00,WeatherDisplay:10.37,2013-02-20 04:55:00,
2013-02-19 23:00:00,5.5,-11.7,30.19,NW,315,6.0,10.4,44,0.00,CLR,,0.00,WeatherDisplay:10.37,2013-02-20 05:00:00,
2013-02-19 23:05:00,5.4,-11.9,30.19,West,270,6.0,6.4,44,0.00,CLR,,0.00,WeatherDisplay:10.37,2013-02-20 05:05:00,
2013-02-19 23:10:00,5.2,-12.0,30.19,NW,315,7.4,11.5,44,0.00,CLR,,0.00,WeatherDisplay:10.37,2013-02-20 05:10:00,
2013-02-19 23:15:00,5.2,-12.0,30.19,NW,315,10.2,13.2,44,0.00,CLR,,0.00,WeatherDisplay:10.37,2013-02-20 05:15:00,
2013-02-19 23:20:00,5.2,-12.0,30.19,NW,315,6.7,8.1,44,0.00,CLR,,0.00,WeatherDisplay:10.37,2013-02-20 05:20:00,
2013-02-19 23:25:00,5.0,-12.2,30.19,WNW,292,7.1,10.4,44,0.00,CLR,,0.00,WeatherDisplay:10.37,2013-02-20 05:25:00,
2013-02-19 23:30:00,5.0,-12.2,30.19,NW,315,6.2,9.2,44,0.00,CLR,,0.00,WeatherDisplay:10.37,2013-02-20 05:30:00,
2013-02-19 23:35:00,4.8,-12.4,30.19,NW,315,6.7,8.1,44,0.00,CLR,,0.00,WeatherDisplay:10.37,2013-02-20 05:35:00,
2013-02-19 23:40:00,4.8,-12.4,30.19,WNW,292,5.4,8.1,44,0.00,CLR,,0.00,WeatherDisplay:10.37,2013-02-20 05:40:00,
2013-02-19 23:45:00,4.6,-12.5,30.19,West,270,4.0,6.9,44,0.00,CLR,,0.00,WeatherDisplay:10.37,2013-02-20 05:45:00,
2013-02-19 23:50:00,4.5,-12.7,30.19,WNW,292,3.6,5.8,44,0.00,CLR,,0.00,WeatherDisplay:10.37,2013-02-20 05:50:00,
2013-02-19 23:55:00,4.5,-12.7,30.19,WNW,292,7.8,10.4,44,0.00,CLR,,0.00,WeatherDisplay:10.37,2013-02-20 05:55:00,